| time (UTC) | temp C | wind direction | speed KPH | gust KPH | rain 1hr cm | rain 24hr cm | rain mn cm | humidity % | barometer mb |
| 20260508035723 | 3 | 71 | 1.6 | 4.8 | 0.00 | 0.00 | 0.00 | 87 | 1014.1 |
| 20260508035221 | 3 | 82 | 1.6 | 3.2 | 0.00 | 0.00 | 0.00 | 87 | 1014.2 |
| 20260508034717 | 3 | 57 | 1.6 | 3.2 | 0.00 | 0.00 | 0.00 | 87 | 1014.1 |
| 20260508034215 | 3 | 61 | 3.2 | 3.2 | 0.00 | 0.00 | 0.00 | 87 | 1014.0 |
| 20260508033711 | 3 | 57 | 0.0 | 3.2 | 0.00 | 0.00 | 0.00 | 87 | 1014.1 |
| 20260508033210 | 3 | 60 | 0.0 | 3.2 | 0.00 | 0.00 | 0.00 | 86 | 1013.9 |
| 20260508032707 | 3 | 44 | 0.0 | 3.2 | 0.00 | 0.00 | 0.00 | 85 | 1014.0 |
| 20260508032204 | 4 | 44 | 0.0 | 3.2 | 0.00 | 0.00 | 0.00 | 83 | 1013.9 |
| 20260508031701 | 4 | 77 | 1.6 | 3.2 | 0.00 | 0.00 | 0.00 | 82 | 1013.9 |
| 20260508031157 | 4 | 123 | 3.2 | 4.8 | 0.00 | 0.00 | 0.00 | 81 | 1014.0 |
| 20260508030653 | 4 | 91 | 1.6 | 3.2 | 0.00 | 0.00 | 0.00 | 81 | 1014.1 |
| 20260508030151 | 4 | 103 | 0.0 | 3.2 | 0.00 | 0.00 | 0.00 | 81 | 1014.2 |
| 20260508025647 | 4 | 81 | 1.6 | 3.2 | 0.00 | 0.00 | 0.00 | 80 | 1014.1 |
| 20260508025144 | 4 | 93 | 1.6 | 3.2 | 0.00 | 0.00 | 0.00 | 80 | 1014.1 |
| 20260508024640 | 4 | 104 | 0.0 | 3.2 | 0.00 | 0.00 | 0.00 | 80 | 1014.0 |
| 20260508024138 | 4 | 95 | 0.0 | 3.2 | 0.00 | 0.00 | 0.00 | 79 | 1014.1 |
| 20260508023634 | 4 | 106 | 1.6 | 3.2 | 0.00 | 0.00 | 0.00 | 79 | 1014.1 |
| 20260508023132 | 4 | 79 | 0.0 | 3.2 | 0.00 | 0.00 | 0.00 | 78 | 1014.1 |
| 20260508022627 | 5 | 106 | 0.0 | 3.2 | 0.00 | 0.00 | 0.00 | 78 | 1014.0 |
| 20260508022125 | 5 | 74 | 0.0 | 3.2 | 0.00 | 0.00 | 0.00 | 78 | 1014.0 |
| 20260508021620 | 5 | 104 | 0.0 | 3.2 | 0.00 | 0.00 | 0.00 | 77 | 1014.0 |
| 20260508021116 | 5 | 70 | 0.0 | 3.2 | 0.00 | 0.00 | 0.00 | 76 | 1013.9 |
| 20260508020614 | 5 | 89 | 1.6 | 3.2 | 0.00 | 0.00 | 0.00 | 76 | 1013.7 |
| 20260508020112 | 5 | 89 | 0.0 | 3.2 | 0.00 | 0.00 | 0.00 | 76 | 1014.0 |
| 20260508015609 | 5 | 73 | 0.0 | 3.2 | 0.00 | 0.00 | 0.00 | 75 | 1013.7 |
| 20260508015105 | 5 | 71 | 0.0 | 3.2 | 0.00 | 0.00 | 0.00 | 74 | 1013.9 |
| 20260508014601 | 5 | 87 | 0.0 | 1.6 | 0.00 | 0.00 | 0.00 | 74 | 1014.0 |
| 20260508014058 | 5 | 69 | 0.0 | 3.2 | 0.00 | 0.00 | 0.00 | 74 | 1013.7 |
| 20260508013554 | 6 | 140 | 0.0 | 3.2 | 0.00 | 0.00 | 0.00 | 74 | 1013.7 |
| 20260508013051 | 6 | 76 | 0.0 | 3.2 | 0.00 | 0.00 | 0.00 | 73 | 1014.1 |
| 20260508012549 | 6 | 104 | 1.6 | 3.2 | 0.00 | 0.00 | 0.00 | 72 | 1013.9 |
| 20260508012046 | 6 | 136 | 0.0 | 3.2 | 0.00 | 0.00 | 0.00 | 71 | 1013.7 |
| 20260508011544 | 6 | 70 | 0.0 | 3.2 | 0.00 | 0.00 | 0.00 | 70 | 1014.0 |
| 20260508011041 | 7 | 76 | 0.0 | 3.2 | 0.00 | 0.00 | 0.00 | 68 | 1013.5 |
| 20260508010538 | 7 | 55 | 0.0 | 3.2 | 0.00 | 0.00 | 0.00 | 66 | 1013.6 |
| 20260508010036 | 7 | 100 | 1.6 | 3.2 | 0.00 | 0.00 | 0.00 | 65 | 1013.6 |
| 20260508005532 | 7 | 95 | 1.6 | 3.2 | 0.00 | 0.00 | 0.00 | 64 | 1013.5 |
| 20260508005029 | 7 | 51 | 0.0 | 3.2 | 0.00 | 0.00 | 0.00 | 63 | 1013.6 |
| 20260508004525 | 8 | 77 | 3.2 | 4.8 | 0.00 | 0.00 | 0.00 | 62 | 1013.7 |
| 20260508004022 | 8 | 98 | 0.0 | 1.6 | 0.00 | 0.00 | 0.00 | 60 | 1013.6 |
| 20260508003518 | 8 | 124 | 3.2 | 4.8 | 0.00 | 0.00 | 0.00 | 61 | 1013.6 |
| 20260508003016 | 8 | 35 | 1.6 | 3.2 | 0.00 | 0.00 | 0.00 | 59 | 1013.4 |
| 20260508002511 | 8 | 138 | 4.8 | 8.0 | 0.00 | 0.00 | 0.00 | 58 | 1013.4 |
| 20260508002009 | 8 | 16 | 1.6 | 3.2 | 0.00 | 0.00 | 0.00 | 58 | 1013.4 |
| 20260508001505 | 9 | 104 | 4.8 | 4.8 | 0.00 | 0.00 | 0.00 | 59 | 1013.5 |
| 20260508001001 | 9 | 283 | 1.6 | 8.0 | 0.00 | 0.00 | 0.00 | 54 | 1013.4 |
| 20260508000457 | 10 | 237 | 0.0 | 4.8 | 0.00 | 0.00 | 0.00 | 56 | 1013.3 |
| 20260507235954 | 10 | 224 | 1.6 | 4.8 | 0.00 | 0.00 | 0.00 | 56 | 1013.3 |
| 20260507235451 | 10 | 89 | 0.0 | 3.2 | 0.00 | 0.00 | 0.00 | 53 | 1013.3 |
| 20260507234948 | 10 | 226 | 3.2 | 8.0 | 0.00 | 0.00 | 0.00 | 54 | 1013.2 |
| 20260507234439 | 10 | 198 | 4.8 | 8.0 | 0.00 | 0.00 | 0.00 | 51 | 1013.1 |
| 20260507233936 | 10 | 199 | 0.0 | 8.0 | 0.00 | 0.00 | 0.00 | 51 | 1013.3 |
| 20260507233433 | 10 | 221 | 11.3 | 20.9 | 0.00 | 0.00 | 0.00 | 50 | 1013.0 |
| 20260507232931 | 10 | 331 | 3.2 | 9.7 | 0.00 | 0.00 | 0.00 | 49 | 1013.2 |
| 20260507232427 | 10 | 203 | 3.2 | 11.3 | 0.00 | 0.00 | 0.00 | 51 | 1013.2 |
| 20260507231925 | 10 | 302 | 3.2 | 19.3 | 0.00 | 0.00 | 0.00 | 48 | 1013.2 |
| 20260507231420 | 10 | 196 | 12.9 | 14.5 | 0.00 | 0.00 | 0.00 | 51 | 1013.1 |
| 20260507230918 | 11 | 195 | 1.6 | 17.7 | 0.00 | 0.00 | 0.00 | 48 | 1013.4 |
| 20260507230415 | 11 | 203 | 1.6 | 8.0 | 0.00 | 0.00 | 0.00 | 48 | 1013.1 |
| 20260507225915 | 11 | 194 | 3.2 | 11.3 | 0.00 | 0.00 | 0.00 | 48 | 1013.2 |
| 20260507225411 | 11 | 221 | 8.0 | 35.4 | 0.00 | 0.00 | 0.00 | 47 | 1013.2 |
| 20260507224908 | 11 | 45 | 4.8 | 32.2 | 0.00 | 0.00 | 0.00 | 49 | 1013.2 |
| 20260507224403 | 11 | 228 | 4.8 | 16.1 | 0.00 | 0.00 | 0.00 | 45 | 1013.3 |
| 20260507223900 | 11 | 210 | 3.2 | 8.0 | 0.00 | 0.00 | 0.00 | 49 | 1013.3 |
| 20260507223357 | 12 | 274 | 3.2 | 19.3 | 0.00 | 0.00 | 0.00 | 46 | 1013.2 |
| 20260507222854 | 12 | 248 | 8.0 | 11.3 | 0.00 | 0.00 | 0.00 | 43 | 1013.1 |
| 20260507222350 | 13 | 69 | 3.2 | 6.4 | 0.00 | 0.00 | 0.00 | 46 | 1013.2 |
| 20260507221847 | 12 | 346 | 3.2 | 19.3 | 0.00 | 0.00 | 0.00 | 47 | 1013.2 |
| 20260507221343 | 12 | 359 | 4.8 | 17.7 | 0.00 | 0.00 | 0.00 | 44 | 1013.0 |
| 20260507220839 | 12 | 244 | 11.3 | 19.3 | 0.00 | 0.00 | 0.00 | 44 | 1013.1 |
| 20260507220338 | 12 | 269 | 0.0 | 16.1 | 0.00 | 0.00 | 0.00 | 47 | 1013.4 |
| 20260507215834 | 13 | 6 | 3.2 | 8.0 | 0.00 | 0.00 | 0.00 | 52 | 1012.9 |
| 20260507215331 | 13 | 165 | 1.6 | 11.3 | 0.00 | 0.00 | 0.00 | 49 | 1013.1 |
| 20260507214828 | 12 | 55 | 4.8 | 12.9 | 0.00 | 0.00 | 0.00 | 49 | 1013.0 |
| 20260507214326 | 13 | 245 | 6.4 | 17.7 | 0.00 | 0.00 | 0.00 | 50 | 1013.1 |
| 20260507213820 | 13 | 95 | 11.3 | 17.7 | 0.00 | 0.00 | 0.00 | 50 | 1012.9 |
| 20260507213318 | 12 | 225 | 4.8 | 12.9 | 0.00 | 0.00 | 0.00 | 52 | 1012.9 |
| 20260507212814 | 12 | 226 | 4.8 | 17.7 | 0.00 | 0.00 | 0.00 | 50 | 1013.0 |
| 20260507212310 | 12 | 250 | 3.2 | 12.9 | 0.00 | 0.00 | 0.00 | 54 | 1012.9 |
| 20260507211807 | 12 | 213 | 6.4 | 14.5 | 0.00 | 0.00 | 0.00 | 54 | 1012.8 |
| 20260507211304 | 11 | 234 | 8.0 | 11.3 | 0.00 | 0.00 | 0.00 | 57 | 1013.0 |
| 20260507210801 | 11 | 229 | 6.4 | 9.7 | 0.00 | 0.00 | 0.00 | 58 | 1012.8 |
| 20260507210257 | 11 | 236 | 9.7 | 11.3 | 0.00 | 0.00 | 0.00 | 56 | 1012.7 |
| 20260507205754 | 11 | 272 | 1.6 | 6.4 | 0.00 | 0.00 | 0.00 | 61 | 1012.9 |
| 20260507205251 | 10 | 73 | 3.2 | 14.5 | 0.00 | 0.00 | 0.00 | 57 | 1012.8 |
| 20260507204747 | 10 | 24 | 3.2 | 4.8 | 0.00 | 0.00 | 0.00 | 60 | 1012.8 |
| 20260507204245 | 10 | 207 | 4.8 | 12.9 | 0.00 | 0.00 | 0.00 | 58 | 1012.8 |
| 20260507203742 | 11 | 182 | 4.8 | 17.7 | 0.00 | 0.00 | 0.00 | 58 | 1012.8 |
| 20260507203240 | 11 | 232 | 4.8 | 11.3 | 0.00 | 0.00 | 0.00 | 56 | 1012.8 |
| 20260507202736 | 11 | 88 | 0.0 | 9.7 | 0.00 | 0.00 | 0.00 | 56 | 1012.8 |
| 20260507202232 | 12 | 194 | 4.8 | 17.7 | 0.05 | 0.00 | 0.00 | 52 | 1012.6 |
| 20260507201726 | 12 | 256 | 1.6 | 12.9 | 0.00 | 0.00 | 0.00 | 52 | 1012.7 |
| 20260507201223 | 13 | 139 | 3.2 | 16.1 | 0.00 | 0.00 | 0.00 | 56 | 1012.5 |
| 20260507200714 | 12 | 223 | 8.0 | 11.3 | 0.00 | 0.00 | 0.00 | 53 | 1012.6 |
| 20260507200211 | 13 | 48 | 4.8 | 11.3 | 0.00 | 0.00 | 0.00 | 52 | 1012.5 |
| 20260507195707 | 12 | 272 | 4.8 | 4.8 | 0.00 | 0.00 | 0.00 | 52 | 1012.5 |
| 20260507195204 | 11 | 338 | 1.6 | 9.7 | 0.00 | 0.00 | 0.00 | 57 | 1012.9 |
| 20260507194701 | 11 | 168 | 6.4 | 12.9 | 0.00 | 0.00 | 0.00 | 52 | 1012.8 |
| 20260507194157 | 13 | 239 | 4.8 | 11.3 | 0.00 | 0.00 | 0.00 | 48 | 1012.8 |
| 20260507193654 | 13 | 259 | 3.2 | 12.9 | 0.00 | 0.00 | 0.00 | 49 | 1012.9 |
| 20260507193151 | 13 | 318 | 6.4 | 14.5 | 0.00 | 0.00 | 0.00 | 49 | 1013.0 |
| 20260507192647 | 13 | 178 | 0.0 | 11.3 | 0.00 | 0.00 | 0.00 | 51 | 1012.9 |
| 20260507192144 | 13 | 245 | 4.8 | 20.9 | 0.00 | 0.00 | 0.00 | 52 | 1013.0 |
| 20260507191639 | 13 | 223 | 4.8 | 11.3 | 0.00 | 0.00 | 0.00 | 46 | 1013.2 |
| 20260507191137 | 13 | 216 | 17.7 | 17.7 | 0.00 | 0.00 | 0.00 | 47 | 1012.9 |
| 20260507190634 | 13 | 198 | 1.6 | 11.3 | 0.00 | 0.00 | 0.00 | 51 | 1013.1 |
| 20260507190133 | 13 | 110 | 6.4 | 12.9 | 0.00 | 0.00 | 0.00 | 44 | 1013.1 |
| 20260507185631 | 13 | 258 | 6.4 | 8.0 | 0.00 | 0.00 | 0.00 | 52 | 1013.1 |
| 20260507185127 | 13 | 110 | 0.0 | 17.7 | 0.00 | 0.00 | 0.00 | 46 | 1013.1 |
| 20260507184625 | 13 | 108 | 4.8 | 8.0 | 0.00 | 0.00 | 0.00 | 51 | 1013.0 |
| 20260507184123 | 13 | 170 | 4.8 | 9.7 | 0.00 | 0.00 | 0.00 | 49 | 1013.1 |
| 20260507183618 | 13 | 191 | 4.8 | 12.9 | 0.00 | 0.00 | 0.00 | 52 | 1013.0 |
| 20260507183116 | 13 | 227 | 11.3 | 14.5 | 0.00 | 0.00 | 0.00 | 44 | 1013.2 |
| 20260507182612 | 13 | 180 | 1.6 | 9.7 | 0.00 | 0.00 | 0.00 | 50 | 1013.2 |
| 20260507182108 | 13 | 196 | 8.0 | 19.3 | 0.00 | 0.00 | 0.00 | 48 | 1013.2 |
| 20260507181605 | 13 | 131 | 3.2 | 8.0 | 0.00 | 0.00 | 0.00 | 56 | 1013.2 |
| 20260507181101 | 13 | 136 | 4.8 | 11.3 | 0.00 | 0.00 | 0.00 | 46 | 1013.0 |
| 20260507180559 | 12 | 217 | 6.4 | 9.7 | 0.00 | 0.00 | 0.00 | 49 | 1013.1 |
| 20260507180055 | 12 | 248 | 4.8 | 19.3 | 0.00 | 0.00 | 0.00 | 54 | 1013.0 |
| 20260507175551 | 12 | 113 | 3.2 | 12.9 | 0.00 | 0.00 | 0.00 | 49 | 1013.0 |
| 20260507175048 | 13 | 215 | 8.0 | 16.1 | 0.00 | 0.00 | 0.00 | 49 | 1013.0 |
| 20260507174545 | 13 | 307 | 4.8 | 9.7 | 0.00 | 0.00 | 0.00 | 48 | 1013.2 |
| 20260507174043 | 13 | 74 | 9.7 | 17.7 | 0.00 | 0.00 | 0.00 | 52 | 1013.3 |
| 20260507173540 | 13 | 318 | 1.6 | 9.7 | 0.00 | 0.00 | 0.00 | 54 | 1013.1 |
| 20260507173037 | 13 | 255 | 3.2 | 12.9 | 0.00 | 0.00 | 0.00 | 52 | 1013.3 |
| 20260507172533 | 13 | 217 | 3.2 | 11.3 | 0.00 | 0.00 | 0.00 | 50 | 1013.0 |
| 20260507172030 | 13 | 216 | 3.2 | 16.1 | 0.00 | 0.00 | 0.00 | 53 | 1013.2 |
| 20260507171525 | 13 | 60 | 1.6 | 19.3 | 0.00 | 0.00 | 0.00 | 48 | 1013.3 |
| 20260507171023 | 13 | 258 | 3.2 | 14.5 | 0.00 | 0.00 | 0.00 | 52 | 1013.3 |
| 20260507170519 | 13 | 267 | 1.6 | 9.7 | 0.00 | 0.00 | 0.00 | 52 | 1013.3 |
| 20260507170016 | 12 | 77 | 1.6 | 8.0 | 0.00 | 0.00 | 0.00 | 50 | 1013.1 |
| 20260507165512 | 13 | 162 | 0.0 | 9.7 | 0.00 | 0.00 | 0.00 | 50 | 1013.2 |
| 20260507165009 | 13 | 92 | 4.8 | 8.0 | 0.00 | 0.00 | 0.00 | 48 | 1013.2 |
| 20260507164505 | 12 | 73 | 3.2 | 9.7 | 0.00 | 0.00 | 0.00 | 54 | 1013.2 |
| 20260507164002 | 12 | 218 | 1.6 | 11.3 | 0.00 | 0.00 | 0.00 | 57 | 1013.1 |
| 20260507163459 | 12 | 192 | 3.2 | 14.5 | 0.00 | 0.00 | 0.00 | 55 | 1013.0 |
| 20260507162956 | 12 | 50 | 3.2 | 11.3 | 0.00 | 0.00 | 0.00 | 60 | 1013.3 |
| 20260507162452 | 11 | 197 | 3.2 | 14.5 | 0.00 | 0.00 | 0.00 | 60 | 1013.2 |
| 20260507161949 | 12 | 209 | 3.2 | 8.0 | 0.00 | 0.00 | 0.00 | 55 | 1013.2 |
| 20260507161445 | 13 | 172 | 1.6 | 8.0 | 0.00 | 0.00 | 0.00 | 50 | 1013.2 |
| 20260507160942 | 13 | 93 | 3.2 | 8.0 | 0.00 | 0.00 | 0.00 | 56 | 1013.2 |
| 20260507160438 | 11 | 142 | 3.2 | 11.3 | 0.00 | 0.00 | 0.00 | 58 | 1013.2 |
| 20260507155933 | 12 | 239 | 4.8 | 12.9 | 0.00 | 0.00 | 0.00 | 54 | 1013.2 |
| 20260507155430 | 13 | 340 | 1.6 | 8.0 | 0.00 | 0.00 | 0.00 | 58 | 1013.2 |
| 20260507154927 | 12 | 80 | 8.0 | 11.3 | 0.00 | 0.00 | 0.00 | 54 | 1013.3 |
| 20260507154424 | 11 | 255 | 0.0 | 9.7 | 0.00 | 0.00 | 0.00 | 56 | 1013.5 |
| 20260507153921 | 11 | 68 | 0.0 | 11.3 | 0.00 | 0.00 | 0.00 | 55 | 1013.2 |
| 20260507153418 | 12 | 133 | 3.2 | 6.4 | 0.00 | 0.00 | 0.00 | 50 | 1013.4 |
| 20260507152914 | 12 | 187 | 3.2 | 8.0 | 0.00 | 0.00 | 0.00 | 50 | 1013.3 |
| 20260507152410 | 12 | 88 | 0.0 | 6.4 | 0.00 | 0.00 | 0.00 | 52 | 1013.2 |
| 20260507151906 | 12 | 206 | 3.2 | 8.0 | 0.00 | 0.00 | 0.00 | 55 | 1013.4 |
| 20260507151403 | 11 | 44 | 3.2 | 8.0 | 0.00 | 0.00 | 0.00 | 56 | 1013.5 |
| 20260507150900 | 12 | 221 | 6.4 | 8.0 | 0.00 | 0.00 | 0.00 | 51 | 1013.2 |
| 20260507150356 | 12 | 271 | 3.2 | 9.7 | 0.00 | 0.00 | 0.00 | 55 | 1013.5 |
| 20260507145853 | 12 | 212 | 8.0 | 9.7 | 0.00 | 0.00 | 0.00 | 53 | 1013.3 |
| 20260507145349 | 12 | 167 | 1.6 | 4.8 | 0.00 | 0.00 | 0.00 | 51 | 1013.4 |
| 20260507144846 | 12 | 0 | 0.0 | 8.0 | 0.00 | 0.00 | 0.00 | 51 | 1013.2 |
| 20260507144343 | 11 | 208 | 6.4 | 14.5 | 0.00 | 0.00 | 0.00 | 54 | 1013.3 |
| 20260507143840 | 11 | 180 | 4.8 | 8.0 | 0.00 | 0.00 | 0.00 | 50 | 1013.3 |
| 20260507143337 | 11 | 269 | 4.8 | 11.3 | 0.00 | 0.00 | 0.00 | 51 | 1013.3 |
| 20260507142833 | 11 | 212 | 4.8 | 6.4 | 0.00 | 0.00 | 0.00 | 57 | 1013.5 |
| 20260507142330 | 11 | 222 | 4.8 | 6.4 | 0.00 | 0.00 | 0.00 | 62 | 1013.4 |
| 20260507141827 | 11 | 161 | 1.6 | 4.8 | 0.00 | 0.00 | 0.00 | 60 | 1013.4 |
| 20260507141323 | 11 | 179 | 4.8 | 4.8 | 0.00 | 0.00 | 0.00 | 60 | 1013.4 |
| 20260507140820 | 11 | 113 | 0.0 | 9.7 | 0.00 | 0.00 | 0.00 | 57 | 1013.5 |
| 20260507140317 | 11 | 182 | 4.8 | 6.4 | 0.00 | 0.00 | 0.00 | 63 | 1013.6 |
| 20260507135815 | 11 | 129 | 4.8 | 6.4 | 0.00 | 0.00 | 0.00 | 68 | 1013.5 |
| 20260507135311 | 11 | 187 | 3.2 | 9.7 | 0.00 | 0.00 | 0.00 | 67 | 1013.9 |
| 20260507134809 | 11 | 261 | 4.8 | 8.0 | 0.00 | 0.00 | 0.00 | 72 | 1013.7 |
| 20260507134304 | 10 | 157 | 3.2 | 6.4 | 0.00 | 0.00 | 0.00 | 70 | 1013.9 |
| 20260507133800 | 10 | 186 | 4.8 | 6.4 | 0.00 | 0.00 | 0.00 | 71 | 1014.0 |
| 20260507133256 | 10 | 21 | 3.2 | 8.0 | 0.00 | 0.00 | 0.00 | 69 | 1014.2 |
| 20260507132754 | 10 | 194 | 4.8 | 8.0 | 0.00 | 0.00 | 0.00 | 71 | 1014.0 |
| 20260507132251 | 10 | 231 | 4.8 | 6.4 | 0.00 | 0.00 | 0.00 | 72 | 1013.9 |
| 20260507131748 | 9 | 145 | 0.0 | 6.4 | 0.00 | 0.00 | 0.00 | 72 | 1014.2 |
| 20260507131245 | 10 | 252 | 1.6 | 6.4 | 0.00 | 0.00 | 0.00 | 73 | 1014.1 |
| 20260507130741 | 9 | 172 | 3.2 | 6.4 | 0.00 | 0.00 | 0.00 | 75 | 1014.0 |
| 20260507130239 | 9 | 199 | 0.0 | 6.4 | 0.00 | 0.00 | 0.00 | 76 | 1014.1 |
| 20260507125738 | 8 | 161 | 1.6 | 4.8 | 0.00 | 0.00 | 0.00 | 76 | 1014.1 |
| 20260507125235 | 8 | 247 | 1.6 | 3.2 | 0.00 | 0.00 | 0.00 | 78 | 1014.0 |
| 20260507124732 | 8 | 95 | 0.0 | 6.4 | 0.00 | 0.00 | 0.00 | 78 | 1014.1 |
| 20260507124228 | 8 | 227 | 3.2 | 4.8 | 0.00 | 0.00 | 0.00 | 78 | 1014.3 |
| 20260507123727 | 8 | 189 | 1.6 | 4.8 | 0.00 | 0.00 | 0.00 | 81 | 1014.1 |
| 20260507123224 | 7 | 179 | 3.2 | 4.8 | 0.00 | 0.00 | 0.00 | 82 | 1014.0 |
| 20260507122719 | 7 | 206 | 3.2 | 4.8 | 0.00 | 0.00 | 0.00 | 83 | 1014.2 |
| 20260507122215 | 7 | 150 | 4.8 | 8.0 | 0.00 | 0.00 | 0.00 | 83 | 1014.1 |
| 20260507121711 | 7 | 152 | 6.4 | 6.4 | 0.00 | 0.00 | 0.00 | 84 | 1013.9 |
| 20260507121207 | 6 | 176 | 3.2 | 4.8 | 0.00 | 0.00 | 0.00 | 86 | 1014.2 |
| 20260507120704 | 6 | 177 | 3.2 | 4.8 | 0.00 | 0.00 | 0.00 | 87 | 1014.0 |
| 20260507120201 | 6 | 140 | 3.2 | 4.8 | 0.00 | 0.00 | 0.00 | 88 | 1014.1 |
| 20260507115656 | 6 | 129 | 0.0 | 4.8 | 0.00 | 0.00 | 0.00 | 89 | 1014.2 |
| 20260507115152 | 6 | 227 | 0.0 | 1.6 | 0.00 | 0.00 | 0.00 | 91 | 1013.9 |
| 20260507114648 | 5 | 128 | 3.2 | 6.4 | 0.00 | 0.00 | 0.00 | 92 | 1014.0 |
| 20260507114146 | 5 | 17 | 3.2 | 4.8 | 0.00 | 0.00 | 0.00 | 92 | 1013.9 |
| 20260507113643 | 5 | 189 | 1.6 | 4.8 | 0.00 | 0.00 | 0.00 | 94 | 1014.0 |
| 20260507113140 | 5 | 139 | 0.0 | 4.8 | 0.00 | 0.00 | 0.00 | 95 | 1014.1 |
| 20260507112638 | 5 | 139 | 1.6 | 4.8 | 0.00 | 0.00 | 0.00 | 97 | 1014.0 |
| 20260507112134 | 5 | 130 | 0.0 | 1.6 | 0.00 | 0.00 | 0.00 | 97 | 1013.7 |
| 20260507111631 | 4 | 224 | 0.0 | 1.6 | 0.00 | 0.00 | 0.00 | 97 | 1013.6 |
| 20260507111128 | 4 | 49 | 0.0 | 1.6 | 0.00 | 0.00 | 0.00 | 98 | 1013.5 |
| 20260507110624 | 4 | 66 | 0.0 | 3.2 | 0.00 | 0.00 | 0.00 | 98 | 1013.6 |
| 20260507110121 | 4 | 206 | 0.0 | 3.2 | 0.00 | 0.00 | 0.00 | 98 | 1013.7 |
| 20260507105618 | 4 | 60 | 0.0 | 3.2 | 0.00 | 0.00 | 0.00 | 98 | 1013.5 |
| 20260507105114 | 3 | 113 | 0.0 | 1.6 | 0.00 | 0.00 | 0.00 | 98 | 1013.5 |
| 20260507104612 | 3 | 304 | 0.0 | 3.2 | 0.00 | 0.00 | 0.00 | 98 | 1013.6 |
| 20260507104108 | 3 | 118 | 0.0 | 3.2 | 0.00 | 0.00 | 0.00 | 98 | 1013.4 |
| 20260507103604 | 3 | 89 | 0.0 | 3.2 | 0.00 | 0.00 | 0.00 | 98 | 1013.5 |
| 20260507103101 | 3 | 102 | 0.0 | 3.2 | 0.00 | 0.00 | 0.00 | 98 | 1013.6 |
| 20260507102557 | 3 | 115 | 1.6 | 4.8 | 0.00 | 0.00 | 0.00 | 98 | 1013.4 |
| 20260507102053 | 3 | 65 | 0.0 | 3.2 | 0.00 | 0.00 | 0.00 | 98 | 1013.4 |
| 20260507101549 | 3 | 124 | 0.0 | 3.2 | 0.00 | 0.00 | 0.00 | 98 | 1013.3 |
| 20260507101045 | 3 | 51 | 0.0 | 3.2 | 0.00 | 0.00 | 0.00 | 98 | 1013.4 |
| 20260507100543 | 3 | 135 | 0.0 | 4.8 | 0.00 | 0.00 | 0.00 | 98 | 1013.2 |
| 20260507100041 | 3 | 89 | 0.0 | 3.2 | 0.00 | 0.00 | 0.00 | 98 | 1013.3 |
| 20260507095539 | 3 | 331 | 1.6 | 3.2 | 0.00 | 0.00 | 0.00 | 98 | 1013.4 |
| 20260507095035 | 3 | 43 | 0.0 | 4.8 | 0.00 | 0.00 | 0.00 | 98 | 1013.3 |
| 20260507094531 | 3 | 77 | 0.0 | 3.2 | 0.00 | 0.00 | 0.00 | 98 | 1013.4 |
| 20260507094028 | 3 | 23 | 1.6 | 3.2 | 0.00 | 0.00 | 0.00 | 97 | 1013.2 |
| 20260507093526 | 3 | 43 | 1.6 | 3.2 | 0.00 | 0.00 | 0.00 | 97 | 1013.5 |
| 20260507093024 | 3 | 54 | 0.0 | 4.8 | 0.00 | 0.00 | 0.00 | 97 | 1013.4 |
| 20260507092520 | 2 | 16 | 0.0 | 4.8 | 0.00 | 0.00 | 0.00 | 97 | 1013.4 |
| 20260507092017 | 2 | 291 | 0.0 | 3.2 | 0.00 | 0.00 | 0.00 | 97 | 1013.4 |
| 20260507091514 | 2 | 354 | 0.0 | 3.2 | 0.00 | 0.00 | 0.00 | 97 | 1013.3 |
| 20260507091010 | 2 | 44 | 0.0 | 3.2 | 0.00 | 0.00 | 0.00 | 97 | 1013.4 |
| 20260507090506 | 3 | 92 | 1.6 | 3.2 | 0.00 | 0.00 | 0.00 | 97 | 1013.5 |
| 20260507090004 | 3 | 98 | 0.0 | 3.2 | 0.00 | 0.00 | 0.00 | 97 | 1013.4 |
| 20260507085500 | 3 | 48 | 0.0 | 3.2 | 0.00 | 0.00 | 0.00 | 97 | 1013.4 |
| 20260507084956 | 3 | 12 | 0.0 | 3.2 | 0.00 | 0.00 | 0.00 | 97 | 1013.5 |
| 20260507084453 | 3 | 56 | 0.0 | 3.2 | 0.00 | 0.00 | 0.00 | 97 | 1013.5 |
| 20260507083950 | 3 | 53 | 0.0 | 3.2 | 0.00 | 0.00 | 0.00 | 97 | 1013.6 |
| 20260507083447 | 2 | 62 | 0.0 | 3.2 | 0.00 | 0.00 | 0.00 | 96 | 1013.9 |
| 20260507082943 | 2 | 40 | 1.6 | 3.2 | 0.00 | 0.00 | 0.00 | 96 | 1013.6 |
| 20260507082439 | 2 | 135 | 0.0 | 1.6 | 0.00 | 0.00 | 0.00 | 96 | 1013.7 |
| 20260507081936 | 2 | 44 | 0.0 | 3.2 | 0.00 | 0.00 | 0.00 | 96 | 1013.6 |
| 20260507081432 | 2 | 58 | 0.0 | 3.2 | 0.00 | 0.00 | 0.00 | 96 | 1013.7 |
| 20260507080929 | 2 | 49 | 0.0 | 3.2 | 0.00 | 0.00 | 0.00 | 96 | 1013.9 |
| 20260507080425 | 2 | 66 | 0.0 | 1.6 | 0.00 | 0.00 | 0.00 | 95 | 1013.7 |
| 20260507075920 | 2 | 76 | 0.0 | 1.6 | 0.00 | 0.00 | 0.00 | 95 | 1013.6 |
| 20260507075416 | 2 | 65 | 0.0 | 1.6 | 0.00 | 0.00 | 0.00 | 95 | 1013.6 |
| 20260507074908 | 2 | 143 | 0.0 | 1.6 | 0.00 | 0.00 | 0.00 | 95 | 1013.5 |
| 20260507074405 | 2 | 89 | 0.0 | 3.2 | 0.00 | 0.00 | 0.00 | 95 | 1013.7 |
| 20260507073903 | 2 | 124 | 0.0 | 3.2 | 0.00 | 0.00 | 0.00 | 95 | 1013.9 |
| 20260507073359 | 2 | 63 | 0.0 | 3.2 | 0.00 | 0.00 | 0.00 | 95 | 1014.0 |
| 20260507072856 | 2 | 62 | 0.0 | 4.8 | 0.00 | 0.00 | 0.00 | 95 | 1013.7 |
| 20260507072353 | 2 | 69 | 1.6 | 3.2 | 0.00 | 0.00 | 0.00 | 95 | 1013.6 |
| 20260507071851 | 2 | 124 | 0.0 | 3.2 | 0.00 | 0.00 | 0.00 | 94 | 1013.7 |
| 20260507071348 | 2 | 68 | 0.0 | 3.2 | 0.00 | 0.00 | 0.00 | 94 | 1013.9 |
| 20260507070843 | 2 | 74 | 0.0 | 3.2 | 0.00 | 0.00 | 0.00 | 94 | 1014.0 |
| 20260507070341 | 2 | 68 | 0.0 | 3.2 | 0.00 | 0.00 | 0.00 | 94 | 1013.9 |
| 20260507065838 | 2 | 1 | 0.0 | 3.2 | 0.00 | 0.00 | 0.00 | 94 | 1014.0 |
| 20260507065335 | 2 | 81 | 1.6 | 3.2 | 0.00 | 0.00 | 0.00 | 94 | 1014.1 |
| 20260507064832 | 2 | 72 | 0.0 | 4.8 | 0.00 | 0.00 | 0.00 | 93 | 1014.2 |
| 20260507064330 | 2 | 52 | 0.0 | 3.2 | 0.00 | 0.00 | 0.00 | 93 | 1014.0 |
| 20260507063828 | 2 | 76 | 0.0 | 4.8 | 0.00 | 0.00 | 0.00 | 93 | 1014.1 |
| 20260507063324 | 3 | 100 | 1.6 | 3.2 | 0.00 | 0.00 | 0.00 | 93 | 1014.3 |
| 20260507062821 | 3 | 93 | 3.2 | 3.2 | 0.00 | 0.00 | 0.00 | 93 | 1014.4 |
| 20260507062318 | 3 | 109 | 0.0 | 4.8 | 0.00 | 0.00 | 0.00 | 92 | 1014.3 |
| 20260507061816 | 3 | 58 | 1.6 | 3.2 | 0.00 | 0.00 | 0.00 | 92 | 1014.2 |
| 20260507061314 | 3 | 42 | 0.0 | 3.2 | 0.00 | 0.00 | 0.00 | 92 | 1014.3 |
| 20260507060812 | 3 | 92 | 0.0 | 3.2 | 0.00 | 0.00 | 0.00 | 92 | 1014.5 |
| 20260507060308 | 3 | 74 | 1.6 | 4.8 | 0.00 | 0.00 | 0.00 | 91 | 1014.4 |
| 20260507055805 | 3 | 84 | 0.0 | 3.2 | 0.00 | 0.00 | 0.00 | 91 | 1014.4 |
| 20260507055300 | 3 | 86 | 0.0 | 3.2 | 0.00 | 0.00 | 0.00 | 91 | 1014.4 |
| 20260507054757 | 3 | 62 | 3.2 | 4.8 | 0.00 | 0.00 | 0.00 | 91 | 1014.5 |
| 20260507054253 | 3 | 83 | 3.2 | 3.2 | 0.00 | 0.00 | 0.00 | 90 | 1014.5 |
| 20260507053751 | 4 | 69 | 3.2 | 3.2 | 0.00 | 0.00 | 0.00 | 90 | 1014.3 |
| 20260507053248 | 4 | 101 | 1.6 | 4.8 | 0.00 | 0.00 | 0.00 | 90 | 1014.5 |
| 20260507052747 | 4 | 63 | 0.0 | 3.2 | 0.00 | 0.00 | 0.00 | 89 | 1014.4 |
| 20260507052243 | 5 | 77 | 1.6 | 3.2 | 0.00 | 0.00 | 0.00 | 89 | 1014.5 |
| 20260507051741 | 5 | 113 | 0.0 | 3.2 | 0.00 | 0.00 | 0.00 | 89 | 1014.7 |
| 20260507051238 | 5 | 69 | 1.6 | 3.2 | 0.00 | 0.00 | 0.00 | 89 | 1014.8 |
| 20260507050734 | 5 | 88 | 3.2 | 3.2 | 0.00 | 0.00 | 0.00 | 89 | 1014.9 |
| 20260507050232 | 5 | 89 | 0.0 | 4.8 | 0.00 | 0.00 | 0.00 | 89 | 1014.7 |
| 20260507045728 | 5 | 86 | 1.6 | 3.2 | 0.00 | 0.00 | 0.00 | 90 | 1014.8 |
| 20260507045224 | 5 | 354 | 0.0 | 3.2 | 0.00 | 0.00 | 0.00 | 90 | 1014.9 |
| 20260507044722 | 5 | 89 | 0.0 | 1.6 | 0.00 | 0.00 | 0.00 | 89 | 1014.8 |
| 20260507044218 | 5 | 57 | 1.6 | 3.2 | 0.00 | 0.00 | 0.00 | 89 | 1014.9 |
| 20260507043714 | 5 | 72 | 0.0 | 1.6 | 0.00 | 0.00 | 0.00 | 89 | 1014.8 |
| 20260507043211 | 5 | 88 | 0.0 | 1.6 | 0.00 | 0.00 | 0.00 | 89 | 1014.8 |
| 20260507042708 | 5 | 89 | 1.6 | 3.2 | 0.00 | 0.00 | 0.00 | 89 | 1014.9 |
| 20260507042203 | 5 | 89 | 0.0 | 3.2 | 0.00 | 0.00 | 0.00 | 89 | 1014.9 |
| 20260507041700 | 5 | 64 | 0.0 | 3.2 | 0.00 | 0.00 | 0.00 | 89 | 1014.9 |
| 20260507041156 | 5 | 105 | 1.6 | 3.2 | 0.00 | 0.00 | 0.00 | 89 | 1014.9 |
| 20260507040654 | 5 | 70 | 1.6 | 3.2 | 0.00 | 0.00 | 0.00 | 89 | 1015.0 |